| time (UTC) | temp C | wind direction | speed KPH | gust KPH | rain 1hr cm | rain 24hr cm | rain mn cm | humidity % | barometer mb |
| 20260904091054 | 18 | 39 | 0.0 | 0.0 | 0.00 | 0.00 | 0.00 | 99 | 1014.3 |
| 20260904090550 | 18 | 53 | 0.0 | 0.0 | 0.00 | 0.00 | 0.00 | 99 | 1014.4 |
| 20260904090045 | 18 | 311 | 0.0 | 0.0 | 0.00 | 0.00 | 0.00 | 99 | 1014.4 |
| 20260904085540 | 18 | 76 | 0.0 | 0.0 | 0.00 | 0.00 | 0.00 | 99 | 1014.5 |
| 20260904085034 | 18 | 66 | 0.0 | 0.0 | 0.00 | 0.00 | 0.00 | 99 | 1014.4 |
| 20260904084530 | 18 | 48 | 0.0 | 0.0 | 0.00 | 0.00 | 0.00 | 99 | 1014.6 |
| 20260904084026 | 18 | 285 | 0.0 | 0.0 | 0.00 | 0.00 | 0.00 | 99 | 1014.6 |
| 20260904083522 | 18 | 61 | 0.0 | 0.0 | 0.00 | 0.00 | 0.00 | 99 | 1014.4 |
| 20260904083017 | 18 | 60 | 0.0 | 0.0 | 0.00 | 0.00 | 0.00 | 99 | 1014.5 |
| 20260904082512 | 19 | 52 | 0.0 | 0.0 | 0.00 | 0.00 | 0.00 | 99 | 1014.3 |
| 20260904082007 | 19 | 290 | 0.0 | 0.0 | 0.00 | 0.00 | 0.00 | 99 | 1014.5 |
| 20260904081503 | 19 | 294 | 0.0 | 0.0 | 0.00 | 0.00 | 0.00 | 99 | 1014.7 |
| 20260904080958 | 19 | 284 | 0.0 | 0.0 | 0.00 | 0.00 | 0.00 | 99 | 1014.6 |
| 20260904080454 | 19 | 343 | 0.0 | 0.0 | 0.00 | 0.00 | 0.00 | 99 | 1014.2 |
| 20260904075949 | 19 | 138 | 0.0 | 0.0 | 0.00 | 0.00 | 0.00 | 99 | 1014.2 |
| 20260904075445 | 19 | 60 | 0.0 | 0.0 | 0.00 | 0.00 | 0.00 | 99 | 1014.6 |
| 20260904074944 | 19 | 64 | 0.0 | 0.0 | 0.00 | 0.00 | 0.00 | 99 | 1014.9 |
| 20260904074439 | 18 | 293 | 0.0 | 0.0 | 0.00 | 0.00 | 0.00 | 99 | 1014.8 |
| 20260904073934 | 18 | 213 | 0.0 | 0.0 | 0.00 | 0.00 | 0.00 | 99 | 1014.6 |
| 20260904073430 | 18 | 278 | 0.0 | 0.0 | 0.00 | 0.00 | 0.00 | 99 | 1014.7 |
| 20260904072925 | 18 | 281 | 0.0 | 0.0 | 0.00 | 0.00 | 0.00 | 99 | 1014.5 |
| 20260904072421 | 18 | 284 | 0.0 | 0.0 | 0.00 | 0.00 | 0.00 | 99 | 1014.4 |
| 20260904071916 | 18 | 296 | 0.0 | 0.0 | 0.00 | 0.00 | 0.00 | 99 | 1014.3 |
| 20260904071411 | 18 | 313 | 0.0 | 0.0 | 0.00 | 0.00 | 0.00 | 99 | 1014.0 |
| 20260904070906 | 18 | 358 | 0.0 | 0.0 | 0.00 | 0.00 | 0.00 | 99 | 1014.1 |
| 20260904070405 | 18 | 48 | 0.0 | 0.0 | 0.00 | 0.00 | 0.00 | 99 | 1014.4 |
| 20260904065905 | 18 | 48 | 0.0 | 0.0 | 0.00 | 0.00 | 0.00 | 99 | 1014.5 |
| 20260904065401 | 18 | 318 | 0.0 | 0.0 | 0.00 | 0.00 | 0.00 | 99 | 1014.8 |
| 20260904064901 | 18 | 288 | 0.0 | 0.0 | 0.00 | 0.00 | 0.00 | 99 | 1014.6 |
| 20260904064357 | 18 | 288 | 0.0 | 0.0 | 0.00 | 0.00 | 0.00 | 99 | 1015.0 |
| 20260904063852 | 18 | 288 | 0.0 | 0.0 | 0.00 | 0.00 | 0.00 | 99 | 1015.0 |
| 20260904063349 | 18 | 288 | 0.0 | 0.0 | 0.00 | 0.00 | 0.00 | 99 | 1015.0 |
| 20260904062844 | 18 | 277 | 0.0 | 0.0 | 0.00 | 0.00 | 0.00 | 99 | 1015.0 |
| 20260904062340 | 18 | 290 | 0.0 | 0.0 | 0.00 | 0.00 | 0.00 | 99 | 1015.1 |
| 20260904061835 | 18 | 304 | 0.0 | 0.0 | 0.00 | 0.00 | 0.00 | 99 | 1015.3 |
| 20260904061332 | 18 | 304 | 0.0 | 0.0 | 0.00 | 0.00 | 0.00 | 99 | 1015.5 |
| 20260904060827 | 18 | 302 | 0.0 | 0.0 | 0.00 | 0.00 | 0.00 | 99 | 1015.4 |
| 20260904060324 | 18 | 298 | 0.0 | 0.0 | 0.00 | 0.00 | 0.00 | 99 | 1015.2 |
| 20260904055818 | 18 | 293 | 0.0 | 0.0 | 0.00 | 0.00 | 0.00 | 99 | 1015.2 |
| 20260904055313 | 18 | 321 | 0.0 | 0.0 | 0.00 | 0.00 | 0.00 | 99 | 1015.4 |
| 20260904054809 | 18 | 293 | 0.0 | 0.0 | 0.00 | 0.00 | 0.00 | 99 | 1015.1 |
| 20260904054305 | 18 | 46 | 0.0 | 0.0 | 0.00 | 0.00 | 0.00 | 99 | 1015.0 |
| 20260904053754 | 18 | 338 | 0.0 | 0.0 | 0.00 | 0.00 | 0.00 | 99 | 1015.0 |
| 20260904053254 | 18 | 287 | 0.0 | 0.0 | 0.00 | 0.00 | 0.00 | 99 | 1015.1 |
| 20260904052750 | 18 | 291 | 0.0 | 0.0 | 0.00 | 0.00 | 0.00 | 99 | 1015.2 |
| 20260904052246 | 18 | 291 | 0.0 | 0.0 | 0.00 | 0.00 | 0.00 | 99 | 1015.4 |
| 20260904051742 | 18 | 283 | 0.0 | 0.0 | 0.00 | 0.00 | 0.00 | 99 | 1015.3 |
| 20260904051237 | 18 | 286 | 0.0 | 0.0 | 0.00 | 0.00 | 0.00 | 99 | 1015.3 |
| 20260904050732 | 18 | 295 | 0.0 | 0.0 | 0.00 | 0.00 | 0.00 | 99 | 1015.2 |
| 20260904050229 | 18 | 295 | 0.0 | 0.0 | 0.00 | 0.00 | 0.00 | 99 | 1015.3 |
| 20260904045723 | 18 | 295 | 0.0 | 0.0 | 0.00 | 0.00 | 0.00 | 99 | 1015.3 |
| 20260904045218 | 19 | 277 | 0.0 | 0.0 | 0.00 | 0.00 | 0.00 | 99 | 1015.4 |
| 20260904044713 | 19 | 277 | 0.0 | 0.0 | 0.00 | 0.00 | 0.00 | 99 | 1015.5 |
| 20260904044209 | 19 | 293 | 0.0 | 0.0 | 0.00 | 0.00 | 0.00 | 99 | 1015.2 |
| 20260904043705 | 19 | 306 | 0.0 | 0.0 | 0.00 | 0.00 | 0.00 | 99 | 1015.3 |
| 20260904043202 | 19 | 330 | 0.0 | 0.0 | 0.00 | 0.00 | 0.00 | 99 | 1015.0 |
| 20260904042657 | 19 | 277 | 0.0 | 0.0 | 0.00 | 0.00 | 0.00 | 99 | 1015.2 |
| 20260904042153 | 19 | 303 | 0.0 | 0.0 | 0.00 | 0.00 | 0.00 | 99 | 1015.4 |
| 20260904041647 | 19 | 329 | 0.0 | 0.0 | 0.00 | 0.00 | 0.00 | 99 | 1015.2 |
| 20260904041144 | 19 | 314 | 0.0 | 0.0 | 0.00 | 0.00 | 0.00 | 99 | 1015.5 |
| 20260904040640 | 19 | 292 | 0.0 | 0.0 | 0.00 | 0.00 | 0.00 | 99 | 1015.3 |
| 20260904040135 | 19 | 282 | 0.0 | 0.0 | 0.00 | 0.00 | 0.00 | 99 | 1015.2 |
| 20260904035631 | 19 | 285 | 0.0 | 0.0 | 0.00 | 2.74 | 2.74 | 99 | 1015.0 |
| 20260904035131 | 20 | 316 | 0.0 | 0.0 | 0.00 | 2.74 | 2.74 | 99 | 1014.9 |
| 20260904034630 | 19 | 313 | 0.0 | 0.0 | 0.00 | 2.74 | 2.74 | 99 | 1015.2 |
| 20260904034125 | 20 | 343 | 0.0 | 0.0 | 0.00 | 2.74 | 2.74 | 99 | 1015.1 |
| 20260904033621 | 20 | 311 | 0.0 | 0.0 | 0.00 | 2.74 | 2.74 | 99 | 1015.2 |
| 20260904033119 | 20 | 305 | 0.0 | 0.0 | 0.00 | 2.74 | 2.74 | 99 | 1014.8 |
| 20260904032614 | 20 | 302 | 0.0 | 0.0 | 0.00 | 2.74 | 2.74 | 99 | 1014.9 |
| 20260904032113 | 20 | 311 | 0.0 | 0.0 | 0.00 | 2.74 | 2.74 | 99 | 1015.1 |
| 20260904031612 | 20 | 314 | 0.0 | 0.0 | 0.00 | 2.74 | 2.74 | 99 | 1015.0 |
| 20260904031108 | 20 | 292 | 0.0 | 0.0 | 0.00 | 2.74 | 2.74 | 99 | 1014.9 |
| 20260904030604 | 20 | 292 | 0.0 | 0.0 | 0.00 | 2.74 | 2.74 | 99 | 1014.6 |
| 20260904030059 | 20 | 306 | 0.0 | 0.0 | 0.00 | 2.74 | 2.74 | 99 | 1014.7 |
| 20260904025555 | 20 | 329 | 0.0 | 0.0 | 0.00 | 2.74 | 2.74 | 99 | 1014.7 |
| 20260904025049 | 20 | 330 | 0.0 | 0.0 | 0.00 | 2.74 | 2.74 | 99 | 1014.7 |
| 20260904024545 | 20 | 314 | 0.0 | 0.0 | 0.00 | 2.74 | 2.74 | 99 | 1014.6 |
| 20260904024041 | 20 | 294 | 0.0 | 0.0 | 0.00 | 2.74 | 2.74 | 99 | 1014.8 |
| 20260904023537 | 20 | 289 | 0.0 | 0.0 | 0.00 | 2.74 | 2.74 | 99 | 1014.7 |
| 20260904023032 | 20 | 288 | 0.0 | 0.0 | 0.00 | 2.74 | 2.74 | 99 | 1014.9 |
| 20260904022527 | 20 | 294 | 0.0 | 0.0 | 0.00 | 2.74 | 2.74 | 99 | 1014.5 |
| 20260904022024 | 20 | 311 | 0.0 | 0.0 | 0.00 | 2.74 | 2.74 | 99 | 1014.5 |
| 20260904021519 | 20 | 357 | 0.0 | 0.0 | 0.00 | 2.74 | 2.74 | 99 | 1014.6 |
| 20260904021014 | 21 | 289 | 0.0 | 0.0 | 0.00 | 2.74 | 2.74 | 99 | 1014.7 |
| 20260904020515 | 21 | 303 | 0.0 | 0.0 | 0.00 | 2.74 | 2.74 | 99 | 1014.7 |
| 20260904020009 | 21 | 317 | 0.0 | 0.0 | 0.00 | 2.74 | 2.74 | 99 | 1014.6 |
| 20260904015504 | 21 | 317 | 0.0 | 0.0 | 0.00 | 2.74 | 2.74 | 99 | 1014.6 |
| 20260904015002 | 21 | 308 | 0.0 | 0.0 | 0.00 | 2.74 | 2.74 | 99 | 1014.6 |
| 20260904014457 | 21 | 297 | 0.0 | 0.0 | 0.00 | 2.74 | 2.74 | 99 | 1014.5 |
| 20260904013953 | 21 | 274 | 0.0 | 0.0 | 0.00 | 2.74 | 2.74 | 99 | 1014.3 |
| 20260904013449 | 21 | 315 | 0.0 | 0.0 | 0.00 | 2.74 | 2.74 | 99 | 1014.5 |
| 20260904012945 | 21 | 279 | 0.0 | 0.0 | 0.00 | 2.74 | 2.74 | 99 | 1014.6 |
| 20260904012444 | 21 | 347 | 0.0 | 0.0 | 0.00 | 2.74 | 2.74 | 99 | 1014.6 |
| 20260904011939 | 21 | 316 | 0.0 | 0.0 | 0.00 | 2.74 | 2.74 | 99 | 1014.8 |
| 20260904011433 | 21 | 321 | 0.0 | 0.0 | 0.00 | 2.74 | 2.74 | 99 | 1014.8 |
| 20260904010929 | 21 | 295 | 0.0 | 0.0 | 0.00 | 2.74 | 2.74 | 99 | 1014.5 |
| 20260904010426 | 21 | 295 | 0.0 | 0.0 | 0.00 | 2.74 | 2.74 | 99 | 1014.6 |
| 20260904005920 | 21 | 60 | 0.0 | 0.0 | 0.00 | 2.74 | 2.74 | 99 | 1014.0 |
| 20260904005416 | 21 | 62 | 0.0 | 0.0 | 0.00 | 2.74 | 2.74 | 99 | 1014.1 |
| 20260904004916 | 21 | 62 | 0.0 | 0.0 | 0.00 | 2.74 | 2.74 | 99 | 1013.7 |
| 20260904004412 | 21 | 344 | 0.0 | 0.0 | 0.00 | 2.74 | 2.74 | 99 | 1013.8 |
| 20260904003907 | 21 | 32 | 0.0 | 0.0 | 0.00 | 2.74 | 2.74 | 99 | 1013.5 |
| 20260904003403 | 21 | 354 | 0.0 | 0.0 | 0.00 | 2.74 | 2.74 | 99 | 1013.7 |
| 20260904002857 | 21 | 356 | 0.0 | 0.0 | 0.00 | 2.74 | 2.74 | 99 | 1013.6 |
| 20260904002354 | 21 | 306 | 0.0 | 0.0 | 0.00 | 2.74 | 2.74 | 99 | 1014.0 |
| 20260904001853 | 21 | 286 | 0.0 | 0.0 | 0.00 | 2.74 | 2.74 | 99 | 1013.6 |
| 20260904001349 | 21 | 312 | 0.0 | 0.0 | 0.00 | 2.74 | 2.74 | 99 | 1013.6 |
| 20260904000843 | 21 | 358 | 0.0 | 0.0 | 0.00 | 2.74 | 2.74 | 99 | 1013.5 |
| 20260904000343 | 21 | 287 | 0.0 | 0.0 | 0.00 | 2.74 | 2.74 | 99 | 1013.3 |
| 20260903235843 | 21 | 292 | 0.0 | 0.0 | 0.00 | 2.74 | 2.74 | 99 | 1013.2 |
| 20260903235339 | 21 | 287 | 0.0 | 0.0 | 0.00 | 2.74 | 2.74 | 99 | 1013.1 |
| 20260903234838 | 21 | 299 | 0.0 | 0.0 | 0.00 | 2.74 | 2.74 | 99 | 1013.2 |
| 20260903234335 | 21 | 283 | 0.0 | 0.0 | 0.00 | 2.74 | 2.74 | 99 | 1012.9 |
| 20260903233831 | 22 | 288 | 0.0 | 0.0 | 0.00 | 2.74 | 2.74 | 99 | 1013.0 |
| 20260903233326 | 22 | 304 | 0.0 | 0.0 | 0.00 | 2.74 | 2.74 | 99 | 1013.3 |
| 20260903232825 | 22 | 273 | 0.0 | 0.0 | 0.00 | 2.74 | 2.74 | 99 | 1013.4 |
| 20260903232321 | 22 | 288 | 0.0 | 0.0 | 0.00 | 2.74 | 2.74 | 99 | 1013.5 |
| 20260903231820 | 22 | 265 | 0.0 | 0.0 | 0.00 | 2.74 | 2.74 | 99 | 1013.4 |
| 20260903231316 | 22 | 316 | 0.0 | 0.0 | 0.00 | 2.74 | 2.74 | 99 | 1013.5 |
| 20260903230811 | 22 | 293 | 0.0 | 0.0 | 0.00 | 2.74 | 2.74 | 99 | 1013.4 |
| 20260903230306 | 21 | 290 | 0.0 | 0.0 | 0.00 | 2.74 | 2.74 | 99 | 1013.4 |
| 20260903225803 | 21 | 280 | 0.0 | 0.0 | 0.00 | 2.74 | 2.74 | 99 | 1013.1 |
| 20260903225258 | 22 | 308 | 0.0 | 0.0 | 0.00 | 2.74 | 2.74 | 99 | 1012.7 |
| 20260903224755 | 22 | 286 | 0.0 | 0.0 | 0.00 | 2.74 | 2.74 | 99 | 1013.0 |
| 20260903224250 | 22 | 273 | 0.0 | 0.0 | 0.00 | 2.74 | 2.74 | 99 | 1012.6 |
| 20260903223745 | 21 | 207 | 0.0 | 0.0 | 0.00 | 2.74 | 2.74 | 99 | 1012.5 |
| 20260903223243 | 21 | 329 | 0.0 | 0.0 | 0.00 | 2.74 | 2.74 | 99 | 1012.4 |
| 20260903222739 | 21 | 291 | 0.0 | 0.0 | 0.00 | 2.74 | 2.74 | 99 | 1012.2 |
| 20260903222238 | 21 | 94 | 0.0 | 0.0 | 0.00 | 2.74 | 2.74 | 99 | 1012.5 |
| 20260903221733 | 21 | 278 | 0.0 | 0.0 | 0.00 | 2.74 | 2.74 | 99 | 1012.5 |
| 20260903221231 | 21 | 127 | 1.6 | 1.6 | 0.00 | 2.74 | 2.74 | 99 | 1012.5 |
| 20260903220730 | 21 | 217 | 0.0 | 0.0 | 0.00 | 2.74 | 2.74 | 99 | 1012.6 |
| 20260903220225 | 21 | 314 | 0.0 | 1.6 | 0.00 | 2.74 | 2.74 | 99 | 1012.9 |
| 20260903215718 | 21 | 328 | 0.0 | 0.0 | 0.00 | 2.74 | 2.74 | 99 | 1012.9 |
| 20260903215214 | 21 | 238 | 1.6 | 1.6 | 0.00 | 2.74 | 2.74 | 99 | 1012.7 |
| 20260903214712 | 21 | 312 | 0.0 | 1.6 | 0.00 | 2.74 | 2.74 | 99 | 1012.7 |
| 20260903214209 | 21 | 184 | 3.2 | 4.8 | 0.00 | 2.74 | 2.74 | 99 | 1013.2 |
| 20260903213702 | 21 | 256 | 0.0 | 0.0 | 0.00 | 2.74 | 2.74 | 99 | 1013.3 |
| 20260903213159 | 21 | 327 | 0.0 | 0.0 | 0.00 | 2.74 | 2.74 | 99 | 1013.4 |
| 20260903212654 | 21 | 241 | 0.0 | 0.0 | 0.00 | 2.74 | 2.74 | 99 | 1013.2 |
| 20260903212150 | 22 | 219 | 0.0 | 0.0 | 0.00 | 2.74 | 2.74 | 99 | 1013.4 |
| 20260903211644 | 21 | 351 | 0.0 | 0.0 | 0.00 | 2.74 | 2.74 | 99 | 1013.4 |
| 20260903211141 | 21 | 23 | 0.0 | 0.0 | 0.00 | 2.74 | 2.74 | 99 | 1013.3 |
| 20260903210636 | 21 | 96 | 1.6 | 3.2 | 0.00 | 2.74 | 2.74 | 99 | 1013.1 |
| 20260903210132 | 21 | 101 | 0.0 | 0.0 | 0.00 | 2.74 | 2.74 | 99 | 1013.2 |
| 20260903205631 | 21 | 80 | 1.6 | 4.8 | 0.00 | 2.74 | 2.74 | 99 | 1013.3 |
| 20260903205130 | 21 | 3 | 0.0 | 0.0 | 0.00 | 2.74 | 2.74 | 99 | 1013.5 |
| 20260903204626 | 21 | 132 | 3.2 | 3.2 | 0.00 | 2.74 | 2.74 | 99 | 1013.7 |
| 20260903204122 | 21 | 153 | 0.0 | 1.6 | 0.00 | 2.74 | 2.74 | 99 | 1013.8 |
| 20260903203617 | 21 | 62 | 1.6 | 1.6 | 0.00 | 2.74 | 2.74 | 99 | 1013.7 |
| 20260903203112 | 21 | 242 | 0.0 | 0.0 | 0.00 | 2.74 | 2.74 | 99 | 1013.8 |
| 20260903202607 | 21 | 350 | 0.0 | 0.0 | 0.30 | 2.74 | 2.74 | 99 | 1014.2 |
| 20260903202102 | 21 | 54 | 0.0 | 0.0 | 0.30 | 2.74 | 2.74 | 99 | 1014.3 |
| 20260903201551 | 20 | 336 | 0.0 | 0.0 | 0.30 | 2.72 | 2.72 | 99 | 1014.6 |
| 20260903201050 | 20 | 344 | 1.6 | 1.6 | 0.48 | 2.69 | 2.69 | 99 | 1014.9 |
| 20260903200546 | 20 | 264 | 0.0 | 0.0 | 0.61 | 2.67 | 2.67 | 99 | 1014.8 |
| 20260903200041 | 20 | 281 | 0.0 | 0.0 | 0.61 | 2.62 | 2.62 | 99 | 1014.4 |
| 20260903195537 | 20 | 43 | 0.0 | 0.0 | 0.48 | 2.57 | 2.57 | 99 | 1014.8 |
| 20260903195032 | 20 | 18 | 0.0 | 0.0 | 0.48 | 2.51 | 2.51 | 99 | 1015.1 |
| 20260903194527 | 20 | 282 | 1.6 | 3.2 | 0.61 | 2.49 | 2.49 | 99 | 1015.6 |
| 20260903194022 | 21 | 343 | 0.0 | 0.0 | 0.43 | 2.44 | 2.44 | 99 | 1015.3 |
| 20260903193519 | 21 | 303 | 3.2 | 3.2 | 0.30 | 2.39 | 2.39 | 99 | 1015.7 |
| 20260903193014 | 21 | 60 | 0.0 | 0.0 | 0.18 | 2.36 | 2.36 | 99 | 1015.6 |
| 20260903192510 | 21 | 248 | 0.0 | 0.0 | 0.00 | 2.34 | 2.34 | 99 | 1015.8 |
| 20260903192005 | 21 | 217 | 1.6 | 1.6 | 0.13 | 2.34 | 2.34 | 99 | 1015.8 |
| 20260903191501 | 21 | 259 | 0.0 | 0.0 | 0.61 | 2.34 | 2.34 | 99 | 1014.8 |
| 20260903191000 | 21 | 330 | 0.0 | 0.0 | 0.89 | 2.34 | 2.34 | 99 | 1014.2 |
| 20260903190455 | 21 | 39 | 1.6 | 3.2 | 0.48 | 2.24 | 2.24 | 99 | 1014.2 |
| 20260903185949 | 21 | 53 | 3.2 | 4.8 | 0.18 | 2.18 | 2.18 | 99 | 1015.2 |
| 20260903185445 | 20 | 303 | 1.6 | 3.2 | 0.30 | 2.18 | 2.18 | 99 | 1015.5 |
| 20260903184944 | 21 | 326 | 6.4 | 9.7 | 0.43 | 2.16 | 2.16 | 99 | 1014.8 |
| 20260903184442 | 20 | 283 | 4.8 | 4.8 | 0.30 | 2.13 | 2.13 | 99 | 1013.8 |
| 20260903183936 | 20 | 247 | 0.0 | 0.0 | 0.00 | 2.08 | 2.08 | 99 | 1012.4 |
| 20260903183431 | 20 | 258 | 0.0 | 0.0 | 0.00 | 2.08 | 2.08 | 99 | 1012.4 |
| 20260903182930 | 20 | 252 | 0.0 | 0.0 | 0.00 | 2.08 | 2.08 | 99 | 1012.6 |
| 20260903182429 | 20 | 112 | 1.6 | 3.2 | 0.18 | 2.08 | 2.08 | 99 | 1013.0 |
| 20260903181925 | 20 | 38 | 1.6 | 1.6 | 4.75 | 2.08 | 2.08 | 99 | 1013.3 |
| 20260903181419 | 20 | 3 | 4.8 | 8.0 | 8.41 | 2.08 | 2.08 | 99 | 1012.5 |
| 20260903180918 | 22 | 186 | 4.8 | 4.8 | 5.77 | 1.35 | 1.35 | 99 | 1015.9 |
| 20260903180413 | 22 | 240 | 6.4 | 9.7 | 0.48 | 0.43 | 0.43 | 99 | 1014.1 |
| 20260903175912 | 22 | 338 | 0.0 | 1.6 | 0.18 | 0.38 | 0.38 | 99 | 1012.6 |
| 20260903175407 | 22 | 282 | 0.0 | 0.0 | 0.00 | 0.36 | 0.36 | 99 | 1012.2 |
| 20260903174902 | 22 | 83 | 0.0 | 0.0 | 0.00 | 0.36 | 0.36 | 99 | 1012.3 |
| 20260903174357 | 22 | 11 | 0.0 | 0.0 | 0.00 | 0.36 | 0.36 | 99 | 1012.4 |
| 20260903173857 | 23 | 5 | 0.0 | 0.0 | 0.00 | 0.36 | 0.36 | 99 | 1012.4 |
| 20260903173352 | 23 | 279 | 0.0 | 0.0 | 0.89 | 0.36 | 0.36 | 98 | 1012.7 |
| 20260903172848 | 23 | 328 | 0.0 | 0.0 | 1.07 | 0.36 | 0.36 | 96 | 1012.7 |
| 20260903172342 | 23 | 96 | 1.6 | 3.2 | 0.30 | 0.23 | 0.23 | 92 | 1012.9 |
| 20260903171838 | 23 | 59 | 1.6 | 1.6 | 0.00 | 0.18 | 0.18 | 92 | 1013.2 |
| 20260903171333 | 23 | 70 | 0.0 | 0.0 | 0.00 | 0.18 | 0.18 | 92 | 1013.0 |
| 20260903170832 | 23 | 66 | 0.0 | 1.6 | 0.00 | 0.18 | 0.18 | 92 | 1012.7 |
| 20260903170328 | 24 | 67 | 3.2 | 8.0 | 0.00 | 0.18 | 0.18 | 91 | 1012.7 |
| 20260903165826 | 24 | 91 | 1.6 | 1.6 | 0.00 | 0.18 | 0.18 | 92 | 1012.7 |
| 20260903165325 | 23 | 81 | 1.6 | 1.6 | 0.00 | 0.18 | 0.18 | 93 | 1013.0 |
| 20260903164820 | 23 | 64 | 4.8 | 8.0 | 0.00 | 0.18 | 0.18 | 93 | 1013.1 |
| 20260903164316 | 23 | 54 | 0.0 | 1.6 | 0.00 | 0.18 | 0.18 | 94 | 1013.3 |
| 20260903163815 | 23 | 26 | 0.0 | 0.0 | 0.00 | 0.18 | 0.18 | 94 | 1013.3 |
| 20260903163312 | 23 | 76 | 0.0 | 0.0 | 0.00 | 0.18 | 0.18 | 95 | 1013.4 |
| 20260903162807 | 23 | 158 | 4.8 | 8.0 | 0.00 | 0.18 | 0.18 | 95 | 1013.5 |
| 20260903162306 | 23 | 186 | 0.0 | 0.0 | 0.00 | 0.18 | 0.18 | 96 | 1013.5 |
| 20260903161759 | 23 | 61 | 0.0 | 1.6 | 0.00 | 0.18 | 0.18 | 96 | 1013.6 |
| 20260903161254 | 23 | 302 | 0.0 | 0.0 | 0.00 | 0.18 | 0.18 | 98 | 1013.6 |
| 20260903160750 | 23 | 281 | 0.0 | 0.0 | 0.00 | 0.18 | 0.18 | 98 | 1013.7 |
| 20260903160249 | 23 | 54 | 0.0 | 0.0 | 0.00 | 0.18 | 0.18 | 98 | 1013.6 |
| 20260903155747 | 23 | 56 | 0.0 | 1.6 | 0.00 | 0.18 | 0.18 | 98 | 1013.8 |
| 20260903155242 | 23 | 306 | 0.0 | 0.0 | 0.00 | 0.18 | 0.18 | 99 | 1013.8 |
| 20260903154738 | 22 | 291 | 0.0 | 0.0 | 0.00 | 0.18 | 0.18 | 99 | 1013.9 |
| 20260903154234 | 22 | 19 | 0.0 | 1.6 | 0.00 | 0.18 | 0.18 | 99 | 1013.9 |
| 20260903153729 | 22 | 229 | 4.8 | 4.8 | 0.00 | 0.18 | 0.18 | 99 | 1014.2 |
| 20260903153225 | 22 | 292 | 0.0 | 0.0 | 0.00 | 0.18 | 0.18 | 99 | 1014.5 |
| 20260903152721 | 22 | 265 | 0.0 | 0.0 | 0.00 | 0.18 | 0.18 | 99 | 1014.7 |
| 20260903152217 | 22 | 224 | 1.6 | 1.6 | 0.00 | 0.18 | 0.18 | 99 | 1014.6 |
| 20260903151717 | 22 | 310 | 4.8 | 8.0 | 0.00 | 0.18 | 0.18 | 99 | 1015.4 |
| 20260903151212 | 23 | 308 | 4.8 | 8.0 | 0.00 | 0.18 | 0.18 | 99 | 1015.2 |
| 20260903150707 | 23 | 312 | 0.0 | 0.0 | 0.00 | 0.18 | 0.18 | 99 | 1015.2 |
| 20260903150202 | 24 | 306 | 0.0 | 0.0 | 0.00 | 0.18 | 0.18 | 99 | 1015.1 |
| 20260903145702 | 24 | 249 | 1.6 | 3.2 | 0.00 | 0.18 | 0.18 | 99 | 1014.7 |
| 20260903145157 | 24 | 301 | 1.6 | 1.6 | 0.00 | 0.18 | 0.18 | 99 | 1014.4 |
| 20260903144656 | 25 | 296 | 1.6 | 1.6 | 0.13 | 0.18 | 0.18 | 99 | 1013.6 |
| 20260903144152 | 25 | 349 | 0.0 | 0.0 | 0.89 | 0.18 | 0.18 | 99 | 1013.3 |
| 20260903143648 | 25 | 298 | 0.0 | 0.0 | 0.89 | 0.18 | 0.18 | 99 | 1013.3 |
| 20260903143143 | 25 | 181 | 4.8 | 4.8 | 0.48 | 0.10 | 0.10 | 97 | 1013.3 |
| 20260903142639 | 25 | 311 | 8.0 | 11.3 | 0.00 | 0.03 | 0.03 | 93 | 1014.3 |
| 20260903142135 | 26 | 322 | 0.0 | 0.0 | 0.00 | 0.03 | 0.03 | 92 | 1013.7 |
| 20260903141631 | 26 | 316 | 1.6 | 1.6 | 0.00 | 0.03 | 0.03 | 89 | 1013.7 |
| 20260903141125 | 27 | 56 | 0.0 | 0.0 | 0.00 | 0.03 | 0.03 | 88 | 1013.2 |
| 20260903140622 | 26 | 45 | 0.0 | 0.0 | 0.00 | 0.03 | 0.03 | 90 | 1013.5 |
| 20260903140117 | 25 | 53 | 0.0 | 0.0 | 0.00 | 0.03 | 0.03 | 92 | 1013.4 |
| 20260903135613 | 26 | 299 | 0.0 | 0.0 | 0.00 | 0.03 | 0.03 | 91 | 1013.5 |
| 20260903135112 | 26 | 61 | 0.0 | 0.0 | 0.00 | 0.03 | 0.03 | 91 | 1013.6 |
| 20260903134611 | 25 | 316 | 0.0 | 0.0 | 0.00 | 0.03 | 0.03 | 93 | 1013.4 |
| 20260903134108 | 25 | 305 | 0.0 | 0.0 | 0.00 | 0.03 | 0.03 | 94 | 1013.7 |
| 20260903133605 | 25 | 307 | 0.0 | 0.0 | 0.00 | 0.03 | 0.03 | 97 | 1013.7 |
| 20260903133101 | 24 | 321 | 0.0 | 0.0 | 0.00 | 0.03 | 0.03 | 98 | 1014.0 |
| 20260903132556 | 23 | 265 | 0.0 | 0.0 | 0.00 | 0.03 | 0.03 | 99 | 1013.8 |
| 20260903132050 | 23 | 256 | 0.0 | 0.0 | 0.00 | 0.03 | 0.03 | 99 | 1014.0 |
| 20260903131549 | 23 | 60 | 0.0 | 0.0 | 0.00 | 0.03 | 0.03 | 99 | 1013.6 |
| 20260903131043 | 23 | 74 | 0.0 | 0.0 | 0.13 | 0.03 | 0.03 | 99 | 1013.8 |
| 20260903130538 | 23 | 68 | 0.0 | 0.0 | 0.13 | 0.03 | 0.03 | 99 | 1013.9 |
| 20260903130033 | 22 | 51 | 0.0 | 0.0 | 0.00 | 0.00 | 0.00 | 99 | 1013.9 |
| 20260903125531 | 22 | 84 | 0.0 | 0.0 | 0.00 | 0.00 | 0.00 | 99 | 1013.8 |
| 20260903125027 | 22 | 312 | 0.0 | 0.0 | 0.00 | 0.00 | 0.00 | 99 | 1013.7 |
| 20260903124527 | 22 | 312 | 0.0 | 0.0 | 0.00 | 0.00 | 0.00 | 99 | 1013.9 |
| 20260903124021 | 22 | 285 | 0.0 | 0.0 | 0.00 | 0.00 | 0.00 | 99 | 1014.0 |
| 20260903123521 | 22 | 82 | 0.0 | 0.0 | 0.00 | 0.00 | 0.00 | 99 | 1013.9 |
| 20260903123020 | 22 | 345 | 0.0 | 0.0 | 0.00 | 0.00 | 0.00 | 99 | 1014.0 |
| 20260903122514 | 21 | 41 | 0.0 | 0.0 | 0.00 | 0.00 | 0.00 | 99 | 1014.0 |
| 20260903122014 | 21 | 352 | 0.0 | 0.0 | 0.00 | 0.00 | 0.00 | 99 | 1014.1 |
| 20260903121509 | 21 | 267 | 0.0 | 0.0 | 0.00 | 0.00 | 0.00 | 99 | 1013.9 |
| 20260903121005 | 21 | 314 | 0.0 | 0.0 | 0.00 | 0.00 | 0.00 | 99 | 1014.1 |
| 20260903120503 | 21 | 343 | 0.0 | 0.0 | 0.00 | 0.00 | 0.00 | 99 | 1013.9 |
| 20260903120002 | 20 | 321 | 0.0 | 0.0 | 0.00 | 0.00 | 0.00 | 99 | 1013.8 |
| 20260903115456 | 20 | 310 | 0.0 | 0.0 | 0.00 | 0.00 | 0.00 | 99 | 1014.1 |
| 20260903114956 | 20 | 310 | 0.0 | 0.0 | 0.00 | 0.00 | 0.00 | 99 | 1014.0 |
| 20260903114451 | 20 | 297 | 0.0 | 0.0 | 0.00 | 0.00 | 0.00 | 99 | 1014.1 |
| 20260903113947 | 20 | 297 | 0.0 | 0.0 | 0.00 | 0.00 | 0.00 | 99 | 1013.8 |
| 20260903113443 | 20 | 289 | 0.0 | 0.0 | 0.00 | 0.00 | 0.00 | 99 | 1013.8 |
| 20260903112938 | 20 | 317 | 0.0 | 0.0 | 0.00 | 0.00 | 0.00 | 99 | 1013.7 |
| 20260903112434 | 20 | 320 | 0.0 | 0.0 | 0.00 | 0.00 | 0.00 | 99 | 1013.8 |
| 20260903111933 | 20 | 295 | 0.0 | 0.0 | 0.00 | 0.00 | 0.00 | 99 | 1013.8 |
| 20260903111427 | 20 | 294 | 0.0 | 0.0 | 0.00 | 0.00 | 0.00 | 99 | 1014.0 |
| 20260903110923 | 20 | 304 | 0.0 | 0.0 | 0.00 | 0.00 | 0.00 | 99 | 1013.8 |
| 20260903110419 | 20 | 298 | 0.0 | 0.0 | 0.00 | 0.00 | 0.00 | 99 | 1013.8 |
| 20260903105914 | 20 | 289 | 0.0 | 0.0 | 0.00 | 0.00 | 0.00 | 99 | 1013.5 |
| 20260903105409 | 20 | 303 | 0.0 | 0.0 | 0.00 | 0.00 | 0.00 | 99 | 1013.4 |
| 20260903104909 | 20 | 304 | 0.0 | 0.0 | 0.00 | 0.00 | 0.00 | 99 | 1013.6 |
| 20260903104403 | 20 | 318 | 0.0 | 0.0 | 0.00 | 0.00 | 0.00 | 99 | 1013.5 |
| 20260903103900 | 20 | 304 | 0.0 | 0.0 | 0.00 | 0.00 | 0.00 | 99 | 1013.4 |
| 20260903103356 | 20 | 313 | 0.0 | 0.0 | 0.00 | 0.00 | 0.00 | 99 | 1013.3 |
| 20260903102850 | 20 | 303 | 0.0 | 0.0 | 0.00 | 0.00 | 0.00 | 99 | 1013.8 |
| 20260903102345 | 20 | 302 | 0.0 | 0.0 | 0.00 | 0.00 | 0.00 | 99 | 1013.5 |
| 20260903101844 | 20 | 304 | 0.0 | 0.0 | 0.00 | 0.00 | 0.00 | 99 | 1013.5 |
| 20260903101334 | 20 | 293 | 0.0 | 0.0 | 0.00 | 0.00 | 0.00 | 99 | 1013.2 |
| 20260903100830 | 20 | 291 | 0.0 | 0.0 | 0.00 | 0.00 | 0.00 | 99 | 1013.3 |
| 20260903100330 | 20 | 309 | 0.0 | 0.0 | 0.00 | 0.00 | 0.00 | 99 | 1013.2 |
| 20260903095827 | 20 | 309 | 0.0 | 0.0 | 0.00 | 0.00 | 0.00 | 99 | 1013.3 |
| 20260903095321 | 20 | 319 | 0.0 | 0.0 | 0.00 | 0.00 | 0.00 | 99 | 1013.5 |
| 20260903094816 | 20 | 320 | 0.0 | 0.0 | 0.00 | 0.00 | 0.00 | 99 | 1013.2 |
| 20260903094311 | 20 | 282 | 0.0 | 0.0 | 0.00 | 0.00 | 0.00 | 99 | 1013.5 |
| 20260903093807 | 20 | 268 | 0.0 | 0.0 | 0.00 | 0.00 | 0.00 | 99 | 1013.3 |
| 20260903093301 | 20 | 304 | 0.0 | 0.0 | 0.00 | 0.00 | 0.00 | 99 | 1013.4 |
| 20260903092756 | 20 | 298 | 0.0 | 0.0 | 0.00 | 0.00 | 0.00 | 99 | 1013.2 |
| 20260903092251 | 20 | 298 | 0.0 | 0.0 | 0.00 | 0.00 | 0.00 | 99 | 1013.3 |
| 20260903091750 | 20 | 293 | 0.0 | 0.0 | 0.00 | 0.00 | 0.00 | 99 | 1013.3 |
| 20260903091244 | 20 | 303 | 0.0 | 0.0 | 0.00 | 0.00 | 0.00 | 99 | 1013.1 |